Preview of NWS' New Version of Forecast
This preview is not operational and should not be used for support decisions.

Regional Weather Roundup (RWR)

Issued by National Weather Service (NWS)

                            
000
ASUS45 KCYS 231510
RWRWY 

WYOMING REGIONAL WEATHER ROUNDUP
NATIONAL WEATHER SERVICE CHEYENNE WY
900 AM MDT MON SEP 23 2019

NOTE:  "FAIR" INDICATES FEW OR NO CLOUDS BELOW 12,000 FEET
WITH NO SIGNIFICANT WEATHER AND/OR OBSTRUCTIONS TO VISIBILITY.

WYZ001-231600-
...YELLOWSTONE NATIONAL PARK...
  
CITY           SKY/WX    TMP DP  RH WIND       PRES   REMARKS
LK YELLOWSTONE   N/A     40  39  97 W3        30.25R                  
W YELLOWSTONE  NOT AVBL                                               

$$
WYZ002>013-054>058-071-098>099-231600-
...NORTHERN WYOMING...
  
CITY           SKY/WX    TMP DP  RH WIND       PRES   REMARKS
JACKSON        NOT AVBL                                               
CODY           PTSUNNY   57  37  47 S10       30.09R                  
GREYBULL       NOT AVBL                                               
WORLAND        CLOUDY    48  42  80 SW5       30.07R                  
SHERIDAN       CLOUDY    50  44  80 CALM      30.00R                  
BUFFALO        CLOUDY    67  38  34 NW5       30.04R                  
GILLETTE       PTSUNNY   57  39  51 SE7       30.02R                  
HULETT         FAIR      52  43  71 CALM      30.04R                  
NEWCASTLE      FAIR      50  39  66 SE6       30.08R                  

$$
WYZ014>020-022>026-101>103-231600-
...CENTRAL WYOMING...
  
CITY           SKY/WX    TMP DP  RH WIND       PRES   REMARKS
BIG PINEY      MOSUNNY   39  34  82 CALM      30.24R                  
PINEDALE       MOSUNNY   37  34  87 W9        30.25R WCI  31          
DUBOIS         FAIR      41  32  70 W14       30.19R                  
LANDER         PTSUNNY   53  35  50 W5        30.13R                  
RIVERTON       CLOUDY    53  39  59 CALM      30.14R                  
CASPER         PTSUNNY   57  27  31 SW13      30.11R                  
DOUGLAS        CLOUDY    48  36  63 CALM      30.11R                  

$$
WYZ021-027>030-104>119-231600-
...SOUTHERN WYOMING...
  
CITY           SKY/WX    TMP DP  RH WIND       PRES   REMARKS
EVANSTON       MOSUNNY   51  28  41 S3        30.21R                  
KEMMERER       MOSUNNY   43  32  65 N7        30.23R                  
FORT BRIDGER   NOT AVBL                                               
ROCK SPRINGS   PTSUNNY   47  25  42 NE3       30.22R                  
DIXON          FAIR      47  23  38 SE6G20    30.26S                  
RAWLINS        MOSUNNY   56  21  25 CALM      30.23R                  
SARATOGA       FAIR      52  25  35 E9        30.25R                  
LARAMIE        MOSUNNY   51  21  30 S8        30.26R                  
CHEYENNE       SUNNY     62  31  31 S8        30.19R                  
TORRINGTON     MOSUNNY   50  38  63 NW5       30.10R                  
PINE BLUFFS    FAIR      54  37  54 CALM      30.15S                  

$$
  

000
ASUS45 KCYS 231510
RWRWY 

WYOMING REGIONAL WEATHER ROUNDUP
NATIONAL WEATHER SERVICE CHEYENNE WY
900 AM MDT MON SEP 23 2019

NOTE:  "FAIR" INDICATES FEW OR NO CLOUDS BELOW 12,000 FEET
WITH NO SIGNIFICANT WEATHER AND/OR OBSTRUCTIONS TO VISIBILITY.

WYZ001-231600-
YELLOWSTONE NATIONAL PARK
  
CITY           SKY/WX    TMP DP  RH WIND       PRES   REMARKS
LK YELLOWSTONE   N/A     40  39  97 W3        30.25R                  
W YELLOWSTONE  NOT AVBL                                               

$$
WYZ002>013-054>058-071-098>099-231600-
NORTHERN WYOMING
  
CITY           SKY/WX    TMP DP  RH WIND       PRES   REMARKS
JACKSON        NOT AVBL                                               
CODY           FAIR      57  37  47 S10       30.09R                  
GREYBULL       NOT AVBL                                               
WORLAND        FAIR      48  42  80 SW5       30.07R                  
SHERIDAN       FAIR      50  44  80 CALM      30.00R                  
BUFFALO        FAIR      67  38  34 NW5       30.04R                  
GILLETTE       FAIR      57  39  51 SE7       30.02R                  
HULETT         FAIR      52  43  71 CALM      30.04                   
NEWCASTLE      FAIR      50  39  66 SE6       30.08                   

$$
WYZ014>020-022>026-101>103-231600-
CENTRAL WYOMING
  
CITY           SKY/WX    TMP DP  RH WIND       PRES   REMARKS
BIG PINEY      FAIR      39  34  82 CALM      30.24R                  
PINEDALE       FAIR      37  34  87 W9        30.25  WCI  31          
DUBOIS         FAIR      41  32  70 W14       30.19                   
LANDER         FAIR      53  35  50 W5        30.13R                  
RIVERTON       FAIR      53  39  59 CALM      30.14R                  
CASPER         FAIR      57  27  31 SW13      30.11R                  
DOUGLAS        FAIR      48  36  63 CALM      30.11R                  

$$
WYZ021-027>030-104>119-231600-
SOUTHERN WYOMING
  
CITY           SKY/WX    TMP DP  RH WIND       PRES   REMARKS
EVANSTON       FAIR      51  28  41 S3        30.21R                  
KEMMERER       FAIR      43  32  65 N7        30.23                   
ROCK SPRINGS   FAIR      47  25  42 NE3       30.22R                  
DIXON          FAIR      47  23  38 SE6G20    30.26S                  
RAWLINS        FAIR      56  21  25 CALM      30.23R                  
SARATOGA       FAIR      52  25  35 E9        30.25R                  
LARAMIE        FAIR      51  21  30 S8        30.26R                  
CHEYENNE       FAIR      62  31  31 S8        30.19R                  
TORRINGTON     FAIR      50  38  63 NW5       30.10R                  
PINE BLUFFS    FAIR      54  37  54 CALM      30.15S                  

$$